Weather History for Fort Indiantown Gap, PA

Change the Weather History Date:

Tuesday, February 11, 2014

  Actual Average Record
Temperature  
Mean Temperature 16 °F -  
Max Temperature 24 °F 40 °F 61 °F (2009)
Min Temperature 8 °F 25 °F 2 °F (2011)
Degree Days  
Heating Degree Days 49    
Moisture  
Dew Point 5 °F    
Average Humidity 57    
Maximum Humidity 85    
Minimum Humidity 40    
Precipitation  
Precipitation 0.00 in - - ()
Sea Level Pressure  
Sea Level Pressure 30.40 in    
Wind  
Wind Speed 5 mph (NW)    
Max Wind Speed 12 mph    
Max Gust Speed 18 mph    
Visibility 10 miles    
Events      
Averages and records for this station are not official NWS values.
T = Trace of Precipitation, MM = Missing Value Source: NWS Daily Summary

Daily Weather History Graph

Daily Weather History Graph

Search for Another Location

Airport:

Trip Planner

Search our weather history database for the weather conditions in past years. The results will help you decide how hot, cold, wet, or windy it might be!

Date:

Astronomy

Feb. 11, 2014 Rise Set
Actual Time 7:04 AM EST 5:36 PM EST
Civil Twilight 6:36 AM EST 6:04 PM EST
Nautical Twilight 6:04 AM EST 6:37 PM EST
Astronomical Twilight 5:32 AM EST 7:08 PM EST
Moon 2:55 PM EST (2/11) 4:40 AM EST (2/11)
Length of Visible Light 11h 28m
Length of Day
10h 31m
Waxing Gibbous, 90% of the Moon is Illuminated
Feb 11
Waxing Gibbous
Feb 14
Full
Feb 22
Last Quarter
Mar 1
New
Mar 8
First Quarter

Hourly Weather History & Observations

Time (EST) Temp. Windchill Dew Point Humidity Pressure Visibility Wind Dir Wind Speed Gust Speed Precip Events Conditions
12:58 AM 18.3 °F 8.2 °F 7.9 °F 64% 30.34 in 10.0 mi West 8.1 mph - N/A   Clear
1:58 AM 18.7 °F 11.9 °F 7.7 °F 62% 30.35 in 10.0 mi WNW 4.6 mph - N/A   Overcast
2:56 AM 17.6 °F 12.3 °F 6.8 °F 63% 30.32 in 10.0 mi West 3.5 mph - N/A   Overcast
2:58 AM 18.5 °F 10.4 °F 7.2 °F 61% 30.35 in 10.0 mi West 5.8 mph - N/A   Overcast
3:04 AM 17.6 °F 10.7 °F 6.8 °F 63% 30.32 in 10.0 mi WNW 4.6 mph - N/A   Overcast
3:06 AM 17.6 °F 9.3 °F 6.8 °F 63% 30.32 in 10.0 mi WNW 5.8 mph - N/A   Overcast
3:10 AM 17.6 °F 10.7 °F 6.8 °F 63% 30.32 in 10.0 mi WNW 4.6 mph - N/A   Mostly Cloudy
3:14 AM 17.6 °F 10.7 °F 6.8 °F 63% 30.32 in 10.0 mi West 4.6 mph - N/A   Overcast
3:16 AM 17.6 °F 12.3 °F 6.8 °F 63% 30.32 in 10.0 mi West 3.5 mph - N/A   Overcast
3:26 AM 17.6 °F - 6.8 °F 63% 30.32 in 10.0 mi NW 2.3 mph - N/A   Overcast
3:32 AM 17.6 °F 9.3 °F 5.0 °F 58% 30.32 in 10.0 mi West 5.8 mph - N/A   Overcast
3:58 AM 17.8 °F 12.5 °F 5.9 °F 60% 30.37 in 10.0 mi Variable 3.5 mph - N/A   Overcast
4:58 AM 16.9 °F 11.5 °F 2.3 °F 53% 30.38 in 10.0 mi Variable 3.5 mph - N/A   Clear
5:58 AM 10.9 °F - 2.8 °F 70% 30.39 in 10.0 mi Calm Calm - N/A   Clear
6:58 AM 10.4 °F - 4.8 °F 78% 30.41 in 10.0 mi NNW 1.2 mph - N/A   Clear
7:58 AM 8.6 °F -1.3 °F 5.0 °F 85% 30.44 in 10.0 mi West 5.8 mph - N/A   Clear
8:58 AM 16.7 °F 8.3 °F 2.8 °F 55% 30.45 in 10.0 mi SW 5.8 mph - N/A   Clear
9:58 AM 18.9 °F 10.8 °F 3.4 °F 51% 30.46 in 10.0 mi WNW 5.8 mph - N/A   Clear
10:58 AM 20.7 °F 14.2 °F 3.7 °F 48% 30.45 in 10.0 mi Variable 4.6 mph - N/A   Scattered Clouds
11:58 AM 21.9 °F 11.7 °F 3.7 °F 46% 30.43 in 10.0 mi North 9.2 mph - N/A   Partly Cloudy
12:58 PM 22.6 °F 13.4 °F 3.9 °F 45% 30.40 in 10.0 mi WNW 8.1 mph - N/A   Clear
1:58 PM 23.2 °F 12.6 °F 4.1 °F 44% 30.39 in 10.0 mi WNW 10.4 mph - N/A   Clear
2:01 PM 23.0 °F 13.9 °F 5.0 °F 46% 30.35 in 10.0 mi West 8.1 mph 18.4 mph N/A   Clear
2:10 PM 23.0 °F 11.7 °F 3.2 °F 43% 30.35 in 10.0 mi WNW 11.5 mph 16.1 mph N/A   Clear
2:58 PM 23.7 °F 12.6 °F 3.6 °F 42% 30.40 in 10.0 mi NW 11.5 mph - 0.00 in   Clear
3:58 PM 24.3 °F 14.6 °F 3.2 °F 40% 30.40 in 10.0 mi NNW 9.2 mph - N/A   Clear
4:58 PM 23.7 °F 19.3 °F 2.8 °F 41% 30.40 in 10.0 mi NW 3.5 mph - N/A   Clear
5:58 PM 21.6 °F - 2.7 °F 44% 30.44 in 10.0 mi NNW 1.2 mph - N/A   Clear
6:58 PM 15.6 °F - 5.9 °F 66% 30.46 in 10.0 mi Calm Calm - N/A   Clear
7:58 PM 15.1 °F - 5.0 °F 64% 30.47 in 10.0 mi NNW 2.3 mph - N/A   Clear
8:58 PM 12.2 °F 6.1 °F 5.4 °F 74% 30.49 in 10.0 mi North 3.5 mph - N/A   Clear
9:58 PM 16.7 °F 8.3 °F 1.8 °F 52% 30.51 in 10.0 mi North 5.8 mph - N/A   Clear
10:58 PM 14.0 °F 6.5 °F 1.0 °F 56% 30.52 in 10.0 mi Variable 4.6 mph - N/A   Clear
11:58 PM 12.9 °F - 0.5 °F 58% 30.52 in 10.0 mi ENE 2.3 mph - N/A   Clear